Weather Roundup
Issued by NWS Chicago, IL

Home | Current Version | Previous Version | Text Only | Print | Product List | Glossary Off
Versions: 1 2 3 4 5 6 7 8 9 10 11 12 13 14 15 16 17 18 19 20 21 22 23 24 25 26 27 28 29 30 31 32 33 34 35 36 37 38 39 40 41 42 43 44 45 46 47 48 49 50

000
NZUS59 KLOT 271809
HRRLOT

CHICAGO AREA WEATHER ROUNDUP
NATIONAL WEATHER SERVICE CHICAGO/ROMEOVILLE IL
100 PM CDT FRI MAY 27 2016

NOTE: "FAIR" INDICATES FEW OR NO CLOUDS BELOW 12,000 FEET WITH NO
SIGNIFICANT WEATHER AND/OR OBSTRUCTIONS TO VISIBILITY.

* THESE STATIONS ARE NOT UNDER NWS QUALITY CONTROL. THEY ALSO MAY NOT
  REPORT WEATHER SUCH AS PRECIPITATION OR FOG.

ILZ005-006-012>014-019>023-271900-
NORTHEAST ILLINOIS

CITY           SKY/WX    TMP DP  RH WIND       PRES   REMARKS
OHARE          PTSUNNY   80  65  59 S9        29.87F HX  82
6HR MIN TEMP:  68; 6HR MAX TEMP:  80; 6HR PCP:  0.02;

MIDWAY         PTSUNNY   83  62  49 S13G26    29.87F HX  84
6HR MIN TEMP:  70; 6HR MAX TEMP:  83;

AURORA         CLOUDY    82  66  58 S16       29.86F HX  84
6HR MIN TEMP:  69; 6HR MAX TEMP:  82; 6HR PCP: TRACE;

LANSING*       CLOUDY    80  63  56 S14G22    29.90F HX  81
JOLIET*        CLOUDY    82  65  56 S20       29.88F HX  84
WAUKEGAN       LGT RAIN  74  67  78 SE10      29.88F
6HR MIN TEMP:  70; 6HR MAX TEMP:  76; 6HR PCP: TRACE;

DUPAGE AIRPORT PTSUNNY   80  65  59 S13G25    29.86F HX  82
6HR MIN TEMP:  68; 6HR MAX TEMP:  80; 6HR PCP:  0.05;

WHEELING       MOSUNNY   80  65  59 S15G21    29.88F HX  82
6HR MIN TEMP:  69; 6HR MAX TEMP:  80; 6HR PCP:  0.05;

KANKAKEE*      CLOUDY    80  65  60 S15G23    29.90F HX  82
MORRIS*        CLOUDY    82  62  50 S21       29.85F HX  83
LEWIS AIRPORT* CLOUDY    83  60  46 S18G26    29.87F HX  83
$$

WIZ051-052-058>065-066-070>072-271900-
SOUTHEAST WISCONSIN

CITY           SKY/WX    TMP DP  RH WIND       PRES   REMARKS
MILWAUKEE      PTSUNNY   78  69  73 SE12      29.87F HX  80
6HR MIN TEMP:  69; 6HR MAX TEMP:  78;

KENOSHA*       MOSUNNY   80  67  64 S10G16    29.87F HX  82
RACINE*        PTSUNNY   76  66  71 S13       29.89F
BURLINGTON     MOSUNNY   80  64  58 SE12      29.86F HX  82
WAUKESHA       PTSUNNY   75  66  73 S7        29.88F
WEST BEND      LGT RAIN  70  68  94 W6        29.87S VSB 3/4
$$

INZ001>003-010>013-019-020-271900-
NORTHWEST INDIANA

CITY           SKY/WX    TMP DP  RH WIND       PRES   REMARKS
GARY*          PTSUNNY   82  72  69 S6        29.92S HX  87
MICHIGAN CITY* NOT AVBL
RENSSELAER*    NOT AVBL
VALPARAISO     CLOUDY    80  64  58 S14G22    29.94S HX  82
$$

LMZ740>746-271900-
SOUTHERN LAKE MICHIGAN

STATION/POSITION TIME  SKY/WX   TEMP WIND        PRES    VSBY
                                AIR  DIR/SP/G
                 (UTC)          (F)  (DEG/KT/KT) (MB)    (MI)
HARRISON CRIB    1700            73  160/ 12/ 13   N/A
BURNHAM HARBOR   1800            72  110/  5/ 14   N/A
CALUMET HARBOR   1700            78  180/  9/ 15 1012.2F
BURNS HARBOR     1700            77  200/ 11/ 17 1013.5F
MICHIGAN CITY    1700            76  170/ 12/ 15   N/A
$$

ABBREVIATIONS USED IN REMARKS
   TC - TEMPERATURE IN CELSIUS
  WCI - WIND CHILL INDEX
   HX - HEAT INDEX
  VSB - VISIBILITY
$$



USA.gov is the U.S. government's official web portal to all federal, state and local government web resources and services.